Location: Bremen
(53.0793°N, 8.8017°E)
Time: 20:19:42
(UTC+02:00)

Envisat - Pass Details

Date: 04 March 2024
Orbit: 762 x 764 km, 98.3° (Epoch: 13 April)

Event Time Altitude Azimuth Distance (km) Brightness Sun altitude
Rises 02:47:02 0° 24° (NNE) 3,243 7.1 -36.2°
Reaches altitude 10° 02:49:52 10° 39° (NE) 2,311 6.2 -35.9°
Enters shadow 02:53:44 22° 89° (E) 1,629 5.0 -35.5°
